Weather History for Hartsville, SC

Change the Weather History Date:

Friday, March 22, 2013

  Actual Average (KFLO) Record (KFLO)
Temperature  
Mean Temperature 40 °F 57 °F  
Max Temperature 53 °F 69 °F 87 °F (1995)
Min Temperature 28 °F 45 °F 25 °F (1965)
Degree Days  
Heating Degree Days 24 8  
Month to date heating degree days 242  
Since 1 July heating degree days 2308  
Cooling Degree Days 0 1  
Month to date cooling degree days 9  
Year to date cooling degree days 15  
Moisture  
Dew Point 16 °F    
Average Humidity 37    
Maximum Humidity 64    
Minimum Humidity 21    
Precipitation  
Precipitation 0.00 in 0.10 in 0.61 in (1957)
Month to date precipitation 2.39  
Year to date precipitation 8.54  
Sea Level Pressure  
Sea Level Pressure 30.04 in    
Wind  
Wind Speed 3 mph (West)    
Max Wind Speed 9 mph    
Max Gust Speed -    
Visibility 10 miles    
Events      
T = Trace of Precipitation, MM = Missing Value Source: NWS Daily Summary

Daily Weather History Graph

Daily Weather History Graph

Search for Another Location

Airport:

Trip Planner

Search our weather history database for the weather conditions in past years. The results will help you decide how hot, cold, wet, or windy it might be!

Date:

Astronomy

Mar. 22, 2013 Rise Set
Actual Time 7:21 AM EDT 7:33 PM EDT
Civil Twilight 6:55 AM EDT 7:59 PM EDT
Nautical Twilight 6:26 AM EDT 8:28 PM EDT
Astronomical Twilight 5:57 AM EDT 8:58 PM EDT
Moon 3:09 PM EDT (3/22) 4:09 AM EDT (3/22)
Length of Visible Light 13h 03m
Length of Day
12h 12m
Waxing Gibbous, 77% of the Moon is Illuminated
Mar 22
Waxing Gibbous
Mar 27
Full
Apr 3
Last Quarter
Apr 10
New
Apr 18
First Quarter

Hourly Weather History & Observations

Time (EDT) Temp. Windchill Dew Point Humidity Pressure Visibility Wind Dir Wind Speed Gust Speed Precip Events Conditions
12:15 AM 35.6 °F 29.9 °F 12.2 °F 38% 29.98 in 10.0 mi NNE 6.9 mph - N/A   Clear
12:35 AM 35.6 °F 29.9 °F 12.2 °F 38% 29.99 in 10.0 mi North 6.9 mph - N/A   Clear
12:55 AM 35.6 °F 29.9 °F 12.2 °F 38% 29.99 in 10.0 mi NNE 6.9 mph - N/A   Clear
1:15 AM 35.6 °F 28.6 °F 12.2 °F 38% 29.99 in 10.0 mi NNE 9.2 mph - N/A   Clear
1:35 AM 33.8 °F 27.0 °F 12.2 °F 41% 30.00 in 10.0 mi NNE 8.1 mph - N/A   Clear
1:55 AM 33.8 °F - 12.2 °F 41% 30.01 in 10.0 mi Calm Calm - N/A   Clear
2:15 AM 32.0 °F - 14.0 °F 48% 30.01 in 10.0 mi Calm Calm - N/A   Clear
2:35 AM 32.0 °F - 14.0 °F 48% 30.02 in 10.0 mi Calm Calm - N/A   Clear
2:55 AM 32.0 °F - 14.0 °F 48% 30.02 in 10.0 mi Calm Calm - N/A   Clear
3:15 AM 32.0 °F - 14.0 °F 48% 30.02 in 10.0 mi Calm Calm - N/A   Clear
3:35 AM 32.0 °F - 14.0 °F 48% 30.02 in 10.0 mi Calm Calm - N/A   Clear
3:55 AM 32.0 °F - 14.0 °F 48% 30.02 in 10.0 mi Calm Calm - N/A   Clear
4:15 AM 30.2 °F - 14.0 °F 51% 30.02 in 10.0 mi Calm Calm - N/A   Clear
4:35 AM 30.2 °F - 14.0 °F 51% 30.03 in 10.0 mi Calm Calm - N/A   Clear
4:55 AM 32.0 °F - 14.0 °F 48% 30.03 in 10.0 mi Calm Calm - N/A   Clear
5:15 AM 32.0 °F - 14.0 °F 48% 30.04 in 10.0 mi Calm Calm - N/A   Clear
5:35 AM 32.0 °F - 14.0 °F 48% 30.04 in 10.0 mi Calm Calm - N/A   Clear
5:55 AM 32.0 °F - 14.0 °F 48% 30.05 in 10.0 mi Calm Calm - N/A   Clear
6:15 AM 32.0 °F - 17.6 °F 55% 30.06 in 10.0 mi Calm Calm - N/A   Clear
6:35 AM 30.2 °F - 15.8 °F 55% 30.07 in 10.0 mi Calm Calm - N/A   Clear
6:55 AM 30.2 °F - 17.6 °F 60% 30.07 in 10.0 mi Calm Calm - N/A   Clear
7:15 AM 30.2 °F - 17.6 °F 60% 30.08 in 10.0 mi Calm Calm - N/A   Clear
7:35 AM 30.2 °F - 17.6 °F 60% 30.09 in 10.0 mi Calm Calm - N/A   Clear
7:55 AM 28.4 °F - 17.6 °F 64% 30.10 in 10.0 mi Calm Calm - N/A   Clear
8:15 AM 32.0 °F - 21.2 °F 64% 30.10 in 10.0 mi Calm Calm - N/A   Clear
8:35 AM 33.8 °F - 14.0 °F 44% 30.10 in 10.0 mi Calm Calm - N/A   Clear
8:55 AM 35.6 °F - 12.2 °F 38% 30.10 in 10.0 mi Calm Calm - N/A   Clear
9:15 AM 35.6 °F - 12.2 °F 38% 30.11 in 10.0 mi Calm Calm - N/A   Clear
9:35 AM 37.4 °F 34.9 °F 12.2 °F 36% 30.10 in 10.0 mi NNE 3.5 mph - N/A   Clear
9:55 AM 37.4 °F - 12.2 °F 36% 30.10 in 10.0 mi Calm Calm - N/A   Clear
10:15 AM 39.2 °F - 12.2 °F 33% 30.10 in 10.0 mi Calm Calm - N/A   Clear
10:35 AM 39.2 °F - 12.2 °F 33% 30.10 in 10.0 mi Calm Calm - N/A   Clear
10:55 AM 41.0 °F 36.4 °F 12.2 °F 31% 30.10 in 10.0 mi NNE 6.9 mph - N/A   Clear
11:15 AM 41.0 °F - 12.2 °F 31% 30.10 in 10.0 mi Calm Calm - N/A   Clear
11:35 AM 42.8 °F - 10.4 °F 27% 30.10 in 10.0 mi Calm Calm - N/A   Scattered Clouds
11:55 AM 44.6 °F - 12.2 °F 27% 30.10 in 10.0 mi Calm Calm - N/A   Mostly Cloudy
12:15 PM 44.6 °F - 10.4 °F 25% 30.09 in 10.0 mi Calm Calm - N/A   Scattered Clouds
12:35 PM 44.6 °F - 12.2 °F 27% 30.09 in 10.0 mi Calm Calm - N/A   Clear
12:55 PM 46.4 °F 42.9 °F 14.0 °F 27% 30.08 in 10.0 mi WSW 6.9 mph - N/A   Clear
1:15 PM 46.4 °F 43.5 °F 12.2 °F 25% 30.06 in 10.0 mi West 5.8 mph - N/A   Clear
1:35 PM 50.0 °F - 12.2 °F 22% 30.05 in 10.0 mi Calm Calm - N/A   Clear
1:55 PM 50.0 °F - 12.2 °F 22% 30.04 in 10.0 mi Calm Calm - N/A   Clear
2:15 PM 50.0 °F - 12.2 °F 22% 30.04 in 10.0 mi Calm Calm - N/A   Clear
2:35 PM 51.8 °F - 12.2 °F 21% 30.04 in 10.0 mi West 4.6 mph - N/A   Mostly Cloudy
2:55 PM 51.8 °F - 12.2 °F 21% 30.04 in 10.0 mi SSW 5.8 mph - N/A   Overcast
3:15 PM 51.8 °F - 14.0 °F 22% 30.02 in 10.0 mi WSW 6.9 mph - N/A   Overcast
3:35 PM 51.8 °F - 14.0 °F 22% 30.02 in 10.0 mi SW 6.9 mph - N/A   Overcast
3:55 PM 53.6 °F - 15.8 °F 22% 30.02 in 10.0 mi South 5.8 mph - N/A   Overcast
4:15 PM 53.6 °F - 14.0 °F 21% 30.02 in 10.0 mi Calm Calm - N/A   Scattered Clouds
4:35 PM 53.6 °F - 14.0 °F 21% 30.02 in 10.0 mi WSW 4.6 mph - N/A   Clear
4:55 PM 53.6 °F - 15.8 °F 22% 30.01 in 10.0 mi WSW 4.6 mph - N/A   Mostly Cloudy
5:15 PM 53.6 °F - 15.8 °F 22% 30.02 in 10.0 mi WSW 5.8 mph - N/A   Overcast
5:35 PM 53.6 °F - 15.8 °F 22% 30.01 in 10.0 mi SW 4.6 mph - N/A   Mostly Cloudy
5:55 PM 53.6 °F - 14.0 °F 21% 30.00 in 10.0 mi SSW 6.9 mph - N/A   Scattered Clouds
6:15 PM 53.6 °F - 17.6 °F 24% 30.00 in 10.0 mi Calm Calm - N/A   Scattered Clouds
6:35 PM 51.8 °F - 17.6 °F 26% 30.00 in 10.0 mi Calm Calm - N/A   Mostly Cloudy
6:55 PM 51.8 °F - 19.4 °F 28% 30.01 in 10.0 mi Calm Calm - N/A   Mostly Cloudy
7:15 PM 50.0 °F - 21.2 °F 32% 30.02 in 10.0 mi Calm Calm - N/A   Scattered Clouds
7:35 PM 46.4 °F - 23.0 °F 40% 30.02 in 10.0 mi Calm Calm - N/A   Clear
7:55 PM 46.4 °F - 26.6 °F 46% 30.02 in 10.0 mi Calm Calm - N/A   Mostly Cloudy
8:15 PM 46.4 °F - 23.0 °F 40% 30.03 in 10.0 mi Calm Calm - N/A   Overcast
8:35 PM 48.2 °F - 23.0 °F 37% 30.03 in 10.0 mi Calm Calm - N/A   Scattered Clouds
8:55 PM 48.2 °F - 23.0 °F 37% 30.03 in 10.0 mi Calm Calm - N/A   Scattered Clouds
9:15 PM 46.4 °F - 23.0 °F 40% 30.04 in 10.0 mi Calm Calm - N/A   Scattered Clouds
9:35 PM 46.4 °F - 21.2 °F 37% 30.04 in 10.0 mi Calm Calm - N/A   Mostly Cloudy
9:55 PM 46.4 °F - 23.0 °F 40% 30.04 in 10.0 mi Calm Calm - N/A   Mostly Cloudy
10:15 PM 46.4 °F - 23.0 °F 40% 30.04 in 10.0 mi Calm Calm - N/A   Overcast
10:35 PM 46.4 °F - 23.0 °F 40% 30.05 in 10.0 mi Calm Calm - N/A   Overcast
10:55 PM 46.4 °F - 23.0 °F 40% 30.05 in 10.0 mi Calm Calm - N/A   Overcast
11:15 PM 46.4 °F - 24.8 °F 43% 30.04 in 10.0 mi Calm Calm - N/A   Overcast
11:35 PM 44.6 °F - 24.8 °F 46% 30.05 in 10.0 mi Calm Calm - N/A   Mostly Cloudy
11:55 PM 42.8 °F - 24.8 °F 49% 30.05 in 10.0 mi Calm Calm - N/A   Mostly Cloudy